Regional Weather Roundup
Issued by NWS Little Rock, AR

Home | Current Version | Previous Version | Graphics & Text | Print | Product List | Glossary On
Versions: 1 2 3 4 5 6 7 8 9 10 11 12 13 14 15 16 17 18 19 20 21 22 23 24 25 26 27 28 29
000
ASUS44 KLZK 190505
RWRLZK

WEATHER ROUNDUP FOR ARKANSAS
NATIONAL WEATHER SERVICE LITTLE ROCK AR
1100 PM CST WED JAN 18 2017

NOTE: "FAIR" INDICATES FEW OR NO CLOUDS BELOW 12,000 FEET WITH NO
SIGNIFICANT WEATHER AND/OR OBSTRUCTIONS TO VISIBILITY.

ARZ001-003-010-029-190600-
NORTHWEST ARKANSAS

CITY           SKY/WX    TMP DP  RH WIND       PRES   REMARKS
FAYETTEVILLE   CLOUDY    47  47 100 S3        29.96F
FORT SMITH     CLOUDY    46  43  89 E8        29.99F
HARRISON       CLOUDY    42  42 100 SE9       29.99F FOG
BENTONVILLE    CLOUDY   N/A N/A N/A CALM      29.96F
ROGERS         CLOUDY    44  44 100 SE6       29.97F
SILOAM SPGS    CLOUDY    46  45  93 SE3       29.96S
HIGHFILL       CLOUDY    48  47  96 CALM      29.96F
$$

ARZ004-005-016-190600-
NORTH CENTRAL ARKANSAS

CITY           SKY/WX    TMP DP  RH WIND       PRES   REMARKS
BATESVILLE     CLOUDY    45  43  93 CALM      30.05F
FLIPPIN        CLOUDY    43  37  81 CALM      30.00F
MTN HOME       CLOUDY    42  41  96 SE5       30.01F
$$

ARZ040-041-190600-
WEST CENTRAL ARKANSAS

CITY           SKY/WX    TMP DP  RH WIND       PRES   REMARKS
MENA           CLOUDY    48  46  93 E3        30.00F
MOUNT IDA      CLOUDY    47  46  97 CALM      29.98F FOG
$$

ARZ009-017-025-026-028-190600-
NORTHEAST ARKANSAS

CITY           SKY/WX    TMP DP  RH WIND       PRES   REMARKS
CORNING        LGT RAIN  45  45 100 NE5       30.06S
JONESBORO      CLOUDY    46  44  93 NE9       30.03S
NEWPORT        CLOUDY    45  44  97 N6        30.04S
WALNUT RIDGE   CLOUDY    45  39  81 N7        30.04F
BLYTHEVILLE    CLOUDY    49  44  83 NE9       30.04F
$$

ARZ022-023-033-042-044-190600-
CENTRAL ARKANSAS

CITY           SKY/WX    TMP DP  RH WIND       PRES   REMARKS
LITTLE ROCK    DRIZZLE   46  46 100 N6        30.02F FOG
JACKSONVILLE   CLOUDY    47  47  99 N5        30.01F
SEARCY         CLOUDY    47  46  97 N7        30.04F
HOT SPRINGS    CLOUDY    47  47 100 E3        30.00F
RUSSELLVILLE   CLOUDY    45  44  97 CALM      30.02S
CLINTON        CLOUDY    45  45 100 CALM      30.03F FOG
$$

ARZ036-190600-
EAST ARKANSAS

CITY           SKY/WX    TMP DP  RH WIND       PRES   REMARKS
WEST MEMPHIS   CLOUDY    50  50 100 NE12      29.98F
$$

ARZ050-053-066-070-073-190600-
SOUTHWEST ARKANSAS

CITY           SKY/WX    TMP DP  RH WIND       PRES   REMARKS
ARKADELPHIA    CLOUDY    48  47  96 N7        30.01F FOG
CAMDEN         FOG       50  46  87 N3        30.00S VSB 1
TEXARKANA      CLOUDY    48  48 100 NE7       29.99F FOG
EL DORADO      FOG       51  51 100 N5        29.98F VSB 1/2
DE QUEEN       CLOUDY    49  49 100 E5        29.98F
$$

ARZ056-057-069-190600-
SOUTHEAST ARKANSAS

CITY           SKY/WX    TMP DP  RH WIND       PRES   REMARKS
PINE BLUFF     CLOUDY    50  48  93 N5        30.00S
STUTTGART      CLOUDY    50  43  76 NE10      29.99F
MONTICELLO     FOG       54  53  97 CALM      29.98S VSB 1/2

$$






USA.gov is the U.S. government's official web portal to all federal, state and local government web resources and services.